Location: ??? ?????
(38.0796°N, 23.9792°E)
Time: 18:55:53
(UTC+00:00)

Daily predictions for brighter satellites

Satellite Brightness Start Highest point End
(mag) Time Altitude Azimuth Time Altitude Azimuth Time Altitude Azimuth
ATLAS CENTAUR R/B 1.7 16:41:48 10° S 16:45:08 34° ESE 16:48:27 10° NE
Cosmos 2181 Rocket 4.5 16:40:31 10° NNW 16:46:56 71° W 16:53:14 10° S
Okean-O 3.1 16:44:31 10° SE 16:48:39 40° ENE 16:52:48 10° N
Cosmos 1844 Rocket 4.0 16:45:29 10° N 16:49:34 20° NE 16:53:37 10° ESE
Cosmos 44 Rocket 4.1 16:45:18 10° NNW 16:50:09 36° NE 16:54:54 10° ESE
ERS-2 2.4 16:52:28 10° NNE 16:56:00 45° E 16:59:30 10° S
Cosmos 1666 4.3 16:54:41 10° ESE 16:56:39 14° E 16:58:38 10° NE
IRIS 4.2 16:54:00 10° WNW 16:57:23 56° N 16:59:30 13° E
SAR-Lupe-1 4.3 16:54:54 10° NNE 16:58:22 44° E 17:01:48 10° S
Cosmos 2360 Rocket 2.4 16:54:16 10° S 16:59:39 49° ESE 17:05:04 10° NNE
HJ-1C 4.1 16:57:50 10° SE 17:00:48 31° ENE 17:03:47 10° N
Cosmos 1271 Rocket 2.9 16:57:26 10° NNW 17:01:10 72° W 17:04:54 10° S
Cosmos 1470 Rocket 3.7 16:57:43 10° S 17:02:04 55° E 17:06:26 10° NNE
PSLV R/B 3.8 17:01:16 10° NNE 17:05:21 80° ESE 17:09:24 10° S
Cosmos 1602 4.0 17:03:53 10° SSW 17:07:45 75° W 17:11:40 10° N
Meteor 1-19 Rocket 4.3 17:03:17 10° N 17:09:09 62° E 17:14:48 10° SSE
Cosmos 2333 Rocket 3.2 17:05:17 10° SSE 17:09:42 24° E 17:14:09 10° NE
Meteor 2-12 Rocket 4.4 17:05:11 10° S 17:11:09 65° E 17:17:10 10° NNE
CZ-4B R/B 3.8 17:09:53 10° NNW 17:12:25 24° WNW 17:14:59 10° SW
Meteor 2-4 Rocket 4.3 17:08:30 10° N 17:13:58 39° ENE 17:19:28 10° SE
Cosmos 1500 3.2 17:11:31 10° S 17:15:08 55° E 17:18:49 10° NNE
DMSP B5D1-3 4.5 17:11:27 10° NNE 17:16:38 82° ESE 17:21:47 10° S
SL-08 RB Rocket 4.0 17:12:27 10° SE 17:16:41 42° ENE 17:20:58 10° N
Cosmos 1703 Rocket 4.4 17:15:17 10° NNE 17:19:03 27° ENE 17:22:11 13° SE
SJ-11-01 4.3 17:16:38 10° SSE 17:21:17 88° WSW 17:26:01 10° NNW
Cosmos 1933 Rocket 3.5 17:18:44 10° S 17:23:00 61° E 17:27:19 10° NNE
Cosmos 1689 Rocket 2.9 17:24:21 10° N 17:27:09 50° WNW 17:29:57 10° SSW
BREEZE-M DEB (TANK) 2.9 17:22:07 10° WSW 17:28:44 60° NW 17:30:48 18° NE
Cosmos 2322 Rocket 3.1 17:24:10 10° SW 17:29:35 50° WNW 17:35:03 10° NNE
Cosmos 1862 Rocket 4.0 17:26:45 10° NNW 17:31:13 68° W 17:35:38 10° S
Aureole 2 Rocket 1.4 17:33:08 10° NNW 17:35:37 65° ENE 17:35:37 65° ENE
Cosmos 2242 Rocket 3.7 17:32:30 10° N 17:36:53 50° E 17:41:11 10° SSE
Lacrosse 4 Rocket 2.2 17:33:30 10° S 17:37:21 32° ESE 17:38:01 30° E
Nadezhda 3 Rocket 4.2 17:32:18 10° N 17:38:41 80° W 17:45:03 10° S
COSMOS 2428 3.3 17:34:43 10° SSE 17:39:39 31° ESE 17:42:29 20° ENE
YAOGAN 1 3.7 17:36:37 10° S 17:40:46 46° W 17:44:57 10° NNW
Helios 1A Rocket 2.9 17:36:53 10° SSE 17:40:56 82° WSW 17:45:00 10° NNW
CZ-3 Stage 3 3.5 17:39:26 10° WSW 17:43:11 22° SSW 17:44:01 19° S
Meteor 1-14 Rocket 4.5 17:38:07 10° SSW 17:43:41 71° W 17:49:14 10° N
SJ-6B 3.7 17:46:54 32° ENE 17:46:54 32° ENE 17:50:07 10° N
Meteor 1-11 Rocket 4.0 17:41:11 10° SSE 17:46:33 42° E 17:51:51 10° NNE
Cosmos 2219 Rocket 2.4 17:41:37 10° S 17:46:51 44° ESE 17:52:08 10° NE
GP-B 3.0 17:44:01 10° S 17:48:27 90° NNE 17:52:54 10° N
MetOp-A 4.2 17:45:36 16° SE 17:49:39 52° ENE 17:54:51 10° N
ASTEX 1 3.8 17:46:01 10° NNE 17:50:31 37° E 17:50:36 37° E
ARGOS 3.8 17:48:23 10° S 17:53:42 58° W 17:59:04 10° NNW
SL-16 R/B 4.3 17:49:47 10° WSW 17:54:27 26° WNW 17:59:08 10° N
USA 234 3.3 17:52:41 10° NE 17:59:14 78° NW 18:05:45 10° SW
SeaSat 1 3.7 17:58:57 10° N 18:03:34 41° WNW 18:08:11 10° SW
Meteor 1-13 Rocket 4.3 17:57:57 10° N 18:03:47 55° ENE 18:05:58 36° SE
IRS-1A Rocket 4.4 18:03:52 42° ESE 18:05:04 49° ENE 18:10:25 10° N
H-2A R/B 4.1 18:00:29 10° SSW 18:05:13 30° W 18:10:00 10° NW
CZ-4 R/B 4.2 18:02:50 10° SW 18:05:28 18° W 18:08:07 10° NW
Cosmos 2322 3.6 18:00:50 10° SSW 18:06:33 86° ESE 18:12:19 10° NNE
Okean 1-7 2.9 18:02:17 10° N 18:06:40 88° W 18:08:47 30° S
CZ-3A R/B 4.2 17:53:08 10° WSW 18:07:22 28° SSW 18:09:40 21° SSE
CZ-2C R/B 3.7 18:04:33 10° N 18:09:45 46° WNW 18:14:49 10° SW
SL-8 Rocket 4.0 18:05:45 10° S 18:12:00 86° W 18:18:15 10° N
DMSP B5D2-2 4.5 18:11:05 10° N 18:16:14 62° WNW 18:21:21 10° SSW
Cosmos 1869 Rocket 3.5 18:12:56 10° S 18:17:16 80° W 18:21:40 10° N
SL-4 R/B 4.2 18:17:45 10° NNW 18:18:38 13° N 18:18:38 13° N
ATLAS CENTAUR R/B 3.9 18:21:45 10° W 18:24:06 16° NW 18:26:27 10° N
Cosmos 2366 rocket 4.0 18:20:42 10° S 18:26:59 81° W 18:33:22 10° N
NOSS 3-2 (A) 4.3 18:22:09 10° S 18:24:44 28° S 18:24:44 28° S
SL-08 R/B 4.5 18:27:26 60° ESE 18:27:52 61° E 18:34:14 10° NNE
Cosmos 1844 Rocket 3.2 18:28:22 10° NNW 18:33:48 56° WSW 18:36:09 32° S
Cosmos 1777 Rocket 4.1 18:33:24 10° NNW 18:37:59 68° NNW 18:37:59 68° NNW
Ariane Rocket 3.1 18:42:03 71° NW 18:42:03 71° NW 18:46:41 10° NNW
Cosmos 2360 Rocket 4.4 18:39:28 10° WSW 18:43:53 23° NW 18:48:21 10° N
Cosmos 1844 4.3 18:40:03 10° NNW 18:45:39 55° WSW 18:46:58 45° SSW
Cosmos 2278 Rocket 3.9 18:46:17 10° N 18:48:36 22° N 18:48:36 22° N
DELTA 2 R/B (1) 4.2 18:46:26 10° WSW 18:50:27 48° SW 18:50:27 48° SW
Cosmos 2333 Rocket 3.2 18:48:15 10° SW 18:53:38 43° WNW 18:59:05 10° N
Cosmos 1727 Rocket 4.0 18:47:27 10° N 18:52:57 72° N 18:52:57 72° N
Resurs 01 Rocket 4.5 19:12:40 10° NNW 19:12:40 10° NNW 19:12:45 10° NNW
Lacrosse 4 Rocket 4.0 19:12:30 10° WSW 19:14:29 20° W 19:14:29 20° W
COSMOS 2428 4.1 19:18:41 10° SW 19:23:48 34° WNW 19:24:51 32° NW
Cosmos 2219 Rocket 4.1 19:26:26 10° WSW 19:30:58 25° WNW 19:35:31 10° N
